Temp
87 87 87 87 88 89 89 89 90 90 89 92 92 91 91 91 91 92 93 92 91 91 91 90 90 89 90 89 89 89 90 90 90 91 89 89 89 89 90 90 89 89
86 87 87 88 88 88 89 90 89 90 89 90 92 92 92 92 92 92 91 91 91 91 90 91 90 89 89 90 89 89 89 89 89 93 89 88 88 89 90 90 90 90
87 87 87 87 89 89 92 91 90 90 91 92 92 92 92 92 92 91 91 91 91 92 91 90 90 89 90 90 89 89 90 88 88 93 90 89 90 89 90 92 91 91
87 87 89 89 90 90 90 90 90 90 92 91 92 93 93 94 92 92 90 90 90 90 92 91 91 91 90 90 89 90 90 89 90 90 90 90 90 90 90 90 91 92
87 87 88 89 90 90 90 89 91 91 91 92 93 92 91 90 91 92 91 90 90 91 91 90 91 91 90 89 89 89 90 90 90 89 89 88 89 89 91 91 89 90
88 88 88 88 89 89 90 90 90 92 91 93 91 93 93 91 91 92 92 92 93 93 93 93 91 91 92 90 89 89 90 92 92 89 88 88 90 91 92 91 89 88
88 88 88 89 90 90 89 90 90 90 92 93 92 92 92 92 91 91 91 92 93 92 93 91 90 90 91 90 88 88 89 89 90 89 88 88 88 89 91 90 88 88
89 90 90 90 90 90 89 90 91 90 91 91 92 91 92 93 91 93 92 92 93 91 91 92 90 89 92 91 89 88 89 91 90 88 87 88 88 87 88 90 88 87
90 90 90 89 90 91 92 93 92 91 91 91 92 93 92 92 92 93 91 90 90 90 90 90 90 90 90 91 90 89 88 91 92 90 88 88 88 88 89 89 88 88
89 89 91 92 92 92 93 94 95 93 92 91 92 94 93 91 92 92 91 89 89 89 89 89 89 90 90 91 90 89 89 88 89 90 90 89 89 89 90 89 89 88
90 91 91 91 93 94 94 95 96 96 94 93 93 94 95 93 91 92 90 89 90 90 89 89 90 90 89 91 91 91 90 90 90 89 89 89 90 89 89 89 89 89
89 90 91 92 93 95 96 96 97 96 95 94 94 94 94 95 92 92 91 89 89 90 90 89 89 90 89 89 92 92 91 91 91 90 91 90 90 91 91 90 90 90
89 90 91 93 92 94 95 96 96 97 97 95 95 95 95 96 95 92 91 91 90 91 91 90 89 90 89 89 90 91 90 90 92 92 91 91 91 92 93 93 92 92
89 90 91 91 92 91 93 95 96 96 95 95 94 94 95 96 96 94 93 93 92 92 91 91 90 90 89 89 89 90 91 90 90 91 92 92 91 92 93 94 94 94
89 90 90 91 92 91 91 92 94 94 94 94 93 94 96 97 96 96 93 92 92 91 91 92 91 90 90 90 89 89 90 91 90 90 91 91 91 93 94 93 95 96
88 88 89 89 90 89 89 91 93 93 95 93 93 93 93 93 94 94 95 93 92 91 91 91 91 91 85 77 80 89 89 91 91 90 90 90 90 90 93 94 95 96
88 88 88 87 88 89 89 90 91 92 92 90 91 91 92 91 92 93 94 94 93 92 91 91 91 91 75 69 70 74 88 90 90 89 89 89 90 89 89 92 95 95
88 87 87 87 87 88 88 88 90 90 89 89 90 90 90 92 92 91 91 94 94 94 93 92 92 81 68 67 69 68 75 89 91 90 91 90 91 91 91 91 92 94
87 87 87 87 87 87 87 87 88 88 89 89 90 90 91 89 89 90 90 91 92 91 93 94 93 75 65 66 67 67 67 78 91 91 91 91 91 91 91 90 91 91
87 87 86 87 87 87 87 87 87 87 90 91 91 90 88 88 90 89 89 88 90 90 90 93 93 75 65 63 65 64 65 71 89 90 91 91 91 91 92 91 91 91
87 87 86 87 87 87 86 86 86 87 88 90 92 91 88 87 88 88 88 89 90 92 91 92 93 69 63 62 62 61 63 68 87 90 91 90 90 91 90 91 91 91
88 87 86 87 86 86 86 86 86 86 86 88 90 92 91 91 90 90 90 89 90 91 91 90 94 65 61 61 60 61 61 77 84 86 88 89 89 89 90 89 90 90
89 88 87 87 87 86 86 86 86 86 87 88 89 91 91 90 90 91 90 91 91 90 89 90 93 72 60 59 60 58 64 82 83 85 85 86 88 89 89 90 91 90
89 88 87 87 87 86 87 87 88 88 88 88 89 90 92 93 92 91 91 91 92 91 92 91 93 77 58 58 58 57 69 83 84 84 84 84 86 88 89 89 90 84
90 88 88 88 87 88 89 88 88 88 89 89 90 91 91 92 91 91 92 91 94 94 84 89 93 81 57 59 56 56 70 84 85 85 84 84 85 86 87 88 88 85
90 88 88 89 88 88 89 88 89 90 90 90 90 91 91 93 92 91 91 92 94 94 94 93 91 92 71 57 56 55 61 82 86 85 84 84 86 85 87 87 87 88
MSLP
1014.92 1015.16 1015.56 1015.80 1015.92 1015.96 1016.16 1016.48 1016.56 1016.84 1017.00 1017.00 1017.24 1017.40 1017.56 1017.60 1017.68 1017.80 1017.92 1018.08 1018.36 1018.52 1018.60 1018.80 1018.92 1019.12 1019.24 1019.36 1019.44 1019.56 1019.64 1019.76 1019.72 1019.68 1020.00 1020.16 1020.32 1020.48 1020.64 1020.68 1020.72 1020.84
1014.56 1014.80 1015.08 1015.32 1015.60 1015.68 1015.80 1015.88 1016.20 1016.40 1016.72 1016.76 1016.72 1016.84 1017.04 1017.24 1017.44 1017.64 1017.92 1018.08 1018.24 1018.40 1018.40 1018.56 1018.76 1018.92 1019.08 1019.20 1019.36 1019.60 1019.72 1019.72 1019.92 1019.36 1019.88 1020.12 1020.20 1020.24 1020.40 1020.40 1020.48 1020.40
1014.20 1014.52 1014.84 1015.12 1015.24 1015.44 1015.48 1015.56 1015.76 1016.00 1016.20 1016.32 1016.40 1016.56 1016.80 1016.92 1017.24 1017.44 1017.64 1017.88 1018.12 1018.16 1018.32 1018.44 1018.60 1018.72 1018.88 1019.00 1019.16 1019.40 1019.56 1019.72 1019.88 1019.40 1019.64 1020.00 1019.92 1020.16 1020.08 1019.96 1020.12 1020.28
1013.72 1013.96 1014.32 1014.56 1014.64 1014.96 1015.12 1015.36 1015.60 1015.76 1015.76 1016.12 1016.28 1016.24 1016.44 1016.60 1016.88 1017.20 1017.48 1017.72 1017.96 1018.08 1018.08 1018.20 1018.40 1018.48 1018.68 1018.80 1019.00 1019.20 1019.24 1019.44 1019.36 1019.36 1019.60 1019.68 1019.76 1019.80 1019.88 1019.88 1019.92 1020.00
1013.28 1013.64 1013.84 1014.08 1014.16 1014.40 1014.72 1015.12 1015.32 1015.44 1015.64 1015.68 1015.84 1016.00 1016.32 1016.56 1016.76 1016.96 1017.28 1017.52 1017.68 1017.88 1017.96 1018.16 1018.24 1018.36 1018.48 1018.68 1018.80 1019.08 1019.00 1019.20 1019.16 1019.36 1019.64 1019.80 1019.64 1019.72 1019.68 1019.72 1020.04 1020.20
1012.76 1013.08 1013.40 1013.68 1013.88 1014.16 1014.48 1014.76 1014.92 1015.04 1015.28 1015.48 1015.68 1015.68 1015.96 1016.24 1016.52 1016.72 1016.92 1017.20 1017.28 1017.48 1017.64 1017.76 1018.04 1018.20 1018.28 1018.52 1018.68 1018.84 1018.84 1018.88 1018.76 1019.16 1019.56 1019.72 1019.56 1019.32 1019.40 1019.56 1019.92 1020.20
1012.44 1012.80 1013.08 1013.24 1013.56 1013.72 1014.12 1014.36 1014.52 1014.64 1014.84 1014.92 1015.16 1015.52 1015.56 1015.96 1016.28 1016.44 1016.60 1016.80 1016.96 1017.16 1017.32 1017.48 1017.80 1018.00 1018.00 1018.24 1018.56 1018.76 1018.76 1018.80 1018.76 1018.96 1019.40 1019.48 1019.48 1019.52 1019.28 1019.48 1019.76 1020.00
1011.92 1012.16 1012.52 1012.88 1013.24 1013.44 1013.84 1014.00 1014.16 1014.40 1014.48 1014.68 1015.04 1015.16 1015.24 1015.56 1015.84 1016.00 1016.20 1016.44 1016.68 1016.92 1017.08 1017.24 1017.44 1017.76 1017.80 1017.96 1018.36 1018.60 1018.68 1018.56 1018.76 1018.96 1019.20 1019.32 1019.28 1019.52 1019.48 1019.40 1019.56 1019.92
1011.32 1011.72 1012.08 1012.56 1012.84 1013.00 1013.36 1013.48 1013.72 1013.96 1014.08 1014.48 1014.68 1014.76 1014.92 1015.12 1015.36 1015.56 1015.88 1016.16 1016.44 1016.64 1016.88 1017.12 1017.24 1017.44 1017.52 1017.68 1017.92 1018.24 1018.44 1018.36 1018.28 1018.60 1018.92 1019.12 1019.24 1019.32 1019.28 1019.20 1019.48 1019.64
1011.00 1011.24 1011.68 1011.96 1012.32 1012.44 1012.76 1012.88 1013.04 1013.40 1013.64 1014.04 1014.24 1014.24 1014.64 1014.80 1014.92 1015.20 1015.52 1015.96 1016.24 1016.44 1016.64 1016.84 1017.00 1017.12 1017.24 1017.36 1017.60 1017.80 1018.04 1018.20 1018.16 1018.24 1018.40 1018.60 1018.72 1018.80 1018.84 1018.92 1019.12 1019.36
1010.56 1010.80 1011.16 1011.44 1011.68 1011.80 1012.12 1012.28 1012.48 1012.76 1013.12 1013.52 1013.76 1014.00 1014.08 1014.44 1014.76 1014.84 1015.28 1015.64 1015.92 1016.12 1016.32 1016.52 1016.64 1016.76 1017.04 1017.08 1017.12 1017.24 1017.52 1017.68 1017.84 1017.96 1018.12 1018.24 1018.28 1018.36 1018.44 1018.56 1018.72 1018.88
1010.04 1010.32 1010.64 1010.88 1011.12 1011.28 1011.52 1011.72 1011.92 1012.24 1012.60 1013.00 1013.24 1013.64 1013.72 1013.88 1014.40 1014.64 1014.88 1015.24 1015.40 1015.56 1015.76 1016.04 1016.16 1016.36 1016.60 1016.76 1016.80 1016.88 1017.12 1017.24 1017.36 1017.60 1017.68 1017.84 1017.88 1017.92 1018.04 1018.12 1018.28 1018.40
1009.48 1009.72 1009.96 1010.28 1010.64 1010.80 1010.92 1011.20 1011.48 1011.68 1012.00 1012.48 1012.68 1013.00 1013.32 1013.56 1013.80 1014.24 1014.40 1014.64 1014.92 1015.08 1015.32 1015.52 1015.80 1015.92 1016.16 1016.40 1016.52 1016.56 1016.76 1017.00 1017.08 1017.16 1017.36 1017.44 1017.48 1017.48 1017.44 1017.48 1017.64 1017.76
1008.72 1009.04 1009.44 1009.72 1009.96 1010.40 1010.68 1010.80 1011.04 1011.28 1011.60 1011.88 1012.24 1012.68 1012.88 1013.04 1013.28 1013.68 1013.92 1014.12 1014.36 1014.60 1014.76 1014.92 1015.28 1015.56 1015.76 1015.96 1016.12 1016.28 1016.44 1016.64 1016.84 1016.92 1016.96 1017.08 1017.12 1017.08 1017.04 1017.04 1017.08 1017.16
1008.16 1008.60 1008.96 1009.36 1009.72 1010.16 1010.48 1010.68 1010.84 1011.04 1011.28 1011.60 1011.96 1012.20 1012.28 1012.44 1012.64 1012.92 1013.44 1013.80 1013.88 1014.12 1014.36 1014.52 1014.80 1015.08 1015.20 1015.44 1015.80 1016.00 1016.04 1016.28 1016.48 1016.64 1016.76 1016.88 1016.88 1016.80 1016.72 1016.76 1016.68 1016.60
1007.80 1008.20 1008.64 1009.04 1009.52 1009.92 1010.24 1010.44 1010.64 1010.84 1011.04 1011.44 1011.68 1011.88 1012.04 1012.16 1012.40 1012.60 1012.88 1013.32 1013.68 1013.88 1014.00 1014.16 1014.32 1014.36 1014.60 1014.92 1015.16 1015.40 1015.72 1015.84 1016.00 1016.24 1016.36 1016.48 1016.72 1016.80 1016.64 1016.44 1016.40 1016.28
1007.56 1008.00 1008.36 1008.92 1009.16 1009.52 1009.88 1010.20 1010.44 1010.60 1010.92 1011.24 1011.48 1011.68 1011.88 1012.08 1012.28 1012.56 1012.64 1012.72 1013.12 1013.44 1013.76 1013.80 1013.84 1013.80 1014.20 1014.68 1015.00 1015.20 1015.28 1015.52 1015.80 1015.96 1016.00 1016.20 1016.32 1016.52 1016.64 1016.36 1016.04 1015.92
1007.12 1007.60 1008.16 1008.56 1008.88 1009.28 1009.60 1009.88 1010.12 1010.44 1010.80 1011.08 1011.32 1011.60 1011.76 1011.76 1012.16 1012.36 1012.44 1012.44 1012.60 1012.88 1013.16 1013.28 1013.32 1013.36 1013.92 1014.36 1014.72 1015.00 1015.12 1015.20 1015.28 1015.52 1015.64 1015.76 1015.84 1015.92 1015.96 1016.00 1016.00 1015.84
1006.72 1007.32 1007.80 1008.24 1008.56 1008.88 1009.24 1009.64 1010.00 1010.32 1010.64 1010.88 1011.12 1011.12 1011.36 1011.80 1011.96 1012.12 1012.32 1012.32 1012.40 1012.72 1012.76 1012.68 1012.84 1013.00 1013.64 1014.04 1014.40 1014.72 1015.00 1015.12 1015.00 1015.00 1015.20 1015.32 1015.32 1015.40 1015.48 1015.60 1015.60 1015.72
1006.36 1006.92 1007.48 1007.84 1008.16 1008.56 1008.92 1009.36 1009.72 1010.08 1010.12 1010.24 1010.52 1010.84 1011.28 1011.52 1011.64 1011.88 1012.00 1012.24 1012.28 1012.40 1012.52 1012.36 1012.40 1012.64 1013.28 1013.72 1014.12 1014.48 1014.72 1015.00 1014.84 1014.80 1014.84 1014.84 1014.92 1014.96 1015.04 1015.12 1015.24 1015.40
1006.08 1006.52 1007.04 1007.48 1007.84 1008.24 1008.64 1009.04 1009.36 1009.64 1009.88 1009.92 1010.08 1010.48 1010.92 1011.24 1011.36 1011.64 1011.72 1011.84 1011.96 1012.00 1012.20 1012.32 1012.12 1012.36 1012.92 1013.40 1013.80 1014.20 1014.48 1014.80 1014.60 1014.52 1014.48 1014.56 1014.56 1014.56 1014.64 1014.68 1014.76 1014.84
1005.56 1006.16 1006.64 1007.08 1007.52 1007.92 1008.36 1008.76 1009.04 1009.28 1009.60 1009.60 1009.68 1009.80 1010.08 1010.44 1010.80 1010.88 1011.24 1011.48 1011.48 1011.60 1011.80 1012.00 1011.68 1012.08 1012.64 1013.08 1013.48 1013.88 1014.36 1014.68 1014.52 1014.56 1014.44 1014.36 1014.32 1014.28 1014.28 1014.28 1014.32 1014.44
1005.00 1005.64 1006.20 1006.64 1007.04 1007.56 1008.00 1008.32 1008.68 1008.96 1009.16 1009.16 1009.60 1009.60 1009.84 1010.16 1010.36 1010.48 1010.52 1010.76 1011.00 1011.16 1011.44 1011.48 1011.36 1011.64 1012.20 1012.72 1013.20 1013.68 1014.40 1014.28 1014.32 1014.36 1014.36 1014.32 1014.16 1014.00 1013.96 1013.88 1013.88 1013.96
1004.48 1005.04 1005.72 1006.16 1006.64 1007.12 1007.48 1007.72 1007.96 1008.24 1008.60 1008.64 1009.16 1009.40 1009.48 1009.52 1009.68 1009.92 1009.96 1010.04 1010.32 1010.60 1010.72 1011.12 1010.96 1011.08 1011.76 1012.32 1012.84 1013.48 1013.64 1013.72 1013.88 1014.04 1014.16 1014.16 1014.00 1013.80 1013.64 1013.56 1013.48 1013.64
1003.96 1004.52 1005.12 1005.64 1006.16 1006.48 1006.76 1007.28 1007.56 1007.80 1007.92 1008.16 1008.48 1008.72 1008.88 1008.84 1009.12 1009.44 1009.56 1009.60 1009.64 1009.84 1010.12 1010.52 1010.48 1010.72 1011.32 1011.88 1012.48 1012.96 1013.24 1013.12 1013.32 1013.52 1013.88 1013.80 1013.80 1013.76 1013.48 1013.40 1013.32 1013.28
1003.52 1004.12 1004.56 1005.04 1005.60 1006.00 1006.24 1006.64 1006.92 1007.24 1007.56 1007.84 1008.08 1008.20 1008.52 1008.52 1008.72 1008.96 1009.32 1009.36 1009.24 1009.44 1009.60 1009.88 1010.16 1010.20 1010.80 1011.36 1011.92 1012.44 1012.60 1012.60 1012.64 1013.16 1013.40 1013.44 1013.36 1013.40 1013.52 1013.32 1013.12 1013.04
Wind_Speed
13 12 12 11 10 10 10 10 10 10 10 10 9 9 9 8 9 8 9 8 8 8 8 7 7 7 6 6 5 5 5 5 5 4 5 5 5 5 5 5 4 4
15 13 11 11 10 9 9 10 10 10 10 10 9 8 8 9 9 9 9 8 8 9 8 8 7 7 7 6 6 6 5 5 6 5 5 6 5 5 6 6 5 4
15 14 14 14 12 13 13 11 10 10 10 10 10 8 8 9 9 9 9 9 9 9 9 8 8 8 8 7 6 6 6 6 6 6 6 6 6 5 5 6 5 6
16 15 14 14 13 13 12 11 11 10 10 9 10 10 9 8 9 10 10 10 9 9 9 9 9 9 8 8 7 6 6 6 6 6 6 5 6 6 6 5 5 5
17 16 15 14 13 12 12 12 13 11 11 10 10 10 9 9 9 10 10 10 10 10 9 10 9 9 8 8 8 7 6 6 7 6 6 7 6 6 6 5 6 6
16 16 15 14 13 13 13 13 13 12 12 12 11 10 10 11 10 10 10 10 10 11 11 10 10 10 10 9 8 8 7 7 6 7 7 7 7 6 6 6 6 7
17 17 17 14 15 14 13 13 13 12 12 11 11 11 10 11 11 11 10 10 11 10 11 10 10 10 9 8 8 9 8 7 6 7 8 7 7 8 7 6 7 7
18 16 16 15 16 15 14 13 13 12 12 11 12 12 11 11 12 11 11 11 11 11 10 10 10 10 10 9 9 9 10 8 8 8 8 8 8 8 8 7 7 8
17 16 16 18 17 15 16 15 14 13 13 13 12 12 12 12 11 11 11 11 11 10 10 10 10 10 10 10 10 10 10 10 9 9 9 9 9 9 9 8 9 8
18 17 19 18 18 16 17 17 15 14 13 13 13 12 12 12 12 12 11 11 11 11 11 11 11 11 10 11 11 11 11 10 10 9 9 9 9 9 9 9 9 9
19 18 18 19 18 16 18 18 16 14 13 15 14 14 13 12 11 12 12 12 12 12 12 12 11 11 11 11 10 10 11 10 10 10 10 10 9 9 8 8 8 9
19 18 19 20 19 18 18 18 16 15 15 14 14 15 14 13 13 12 12 13 12 12 12 12 11 11 11 11 11 11 10 10 10 10 10 10 10 10 10 9 9 9
19 19 18 18 18 17 16 16 16 16 16 15 15 15 15 14 14 14 12 13 13 12 12 12 12 12 11 11 11 11 10 10 11 11 10 10 10 11 10 10 10 9
19 18 18 17 16 15 15 16 16 16 15 14 14 15 15 15 15 15 13 13 13 13 12 12 12 12 12 12 11 11 11 11 10 10 10 10 10 10 11 11 11 10
17 16 16 16 16 15 15 15 15 15 14 14 13 14 13 15 15 14 14 13 13 12 12 12 12 12 11 11 12 12 11 11 11 11 11 10 10 10 10 10 11 11
17 15 15 16 16 16 16 15 15 15 15 15 14 14 13 13 13 14 14 14 13 13 13 12 11 10 11 15 13 11 11 10 10 10 11 10 10 10 11 11 11 11
16 16 15 16 16 15 15 16 15 14 14 14 14 14 13 13 13 14 14 14 14 13 14 12 11 11 14 15 15 13 11 10 10 10 10 10 11 11 10 11 11 11
16 17 16 16 16 16 16 16 15 14 14 14 14 14 13 13 14 14 14 14 13 14 14 13 12 12 15 17 17 16 13 10 10 10 10 10 11 11 11 10 11 11
16 17 17 16 16 16 15 15 15 15 15 15 15 14 13 13 13 14 14 13 13 13 14 14 13 13 16 18 18 17 17 14 11 10 10 11 10 11 11 10 9 9
17 17 17 17 16 16 15 15 16 16 16 15 13 13 13 13 14 15 13 13 13 13 13 12 13 13 18 18 18 18 18 15 13 12 12 11 11 11 10 11 11 10
17 17 17 16 16 16 15 15 16 15 16 14 13 14 14 14 14 14 13 14 14 14 13 12 11 13 18 19 19 19 19 15 13 13 12 12 11 12 11 11 10 10
18 17 16 16 16 16 16 16 15 15 15 14 13 13 12 12 12 13 14 14 14 14 14 14 13 16 17 19 19 19 18 11 13 12 12 12 12 12 12 11 11 11
18 17 17 17 17 17 17 16 16 15 14 13 13 13 13 13 13 13 13 14 15 15 15 13 13 14 19 19 19 19 14 11 12 11 11 12 12 11 11 12 12 11
17 17 17 17 16 17 17 16 15 14 14 13 14 14 14 14 13 12 13 14 15 15 15 14 14 13 20 19 20 19 17 13 11 11 12 11 12 12 11 11 12 13
17 17 17 17 17 17 16 16 16 15 14 13 13 13 13 12 12 12 12 12 14 15 14 16 14 12 20 20 20 21 17 12 12 11 12 11 11 11 11 10 11 11
15 16 16 17 17 16 15 14 13 13 14 14 13 12 12 12 12 11 13 12 12 14 13 15 15 10 16 21 21 21 22 14 12 12 12 12 11 11 10 11 11 11
Wind_Direction
197 197 200 202 204 204 201 198 199 199 202 207 208 204 206 203 210 212 210 207 209 217 215 219 219 219 220 222 222 225 227 217 225 205 209 211 214 217 220 219 227 233
196 197 199 201 201 201 201 200 200 202 199 205 213 206 203 201 201 207 206 209 207 215 218 217 219 220 220 221 215 222 222 221 223 216 209 210 218 217 224 223 228 237
194 196 199 199 199 198 200 198 201 202 203 205 204 208 201 198 200 200 206 209 212 214 212 217 220 221 220 219 216 219 218 220 226 224 211 217 220 219 229 221 223 223
195 200 203 202 201 199 199 199 199 202 207 202 204 203 204 204 202 201 204 206 214 217 215 213 218 220 219 218 216 222 219 220 223 230 220 222 220 226 220 225 229 226
194 199 203 204 201 199 197 200 201 199 205 204 201 200 198 203 202 203 203 205 211 216 214 216 216 219 217 218 215 225 223 220 213 216 222 224 225 222 231 224 225 230
195 198 199 200 198 195 198 200 203 202 202 201 201 197 200 198 202 206 206 211 211 215 219 216 217 218 217 216 217 221 226 227 212 205 217 225 233 225 228 221 220 225
192 195 197 198 198 195 198 199 200 202 201 203 196 203 199 199 202 207 210 211 216 215 219 220 216 218 216 215 216 218 221 226 234 218 218 225 227 235 233 227 226 226
190 191 194 197 197 193 198 199 199 199 199 199 200 199 201 202 202 205 207 209 213 214 216 219 216 217 221 216 218 219 218 216 218 219 221 226 230 228 227 229 225 229
191 191 191 195 195 193 198 198 197 198 197 198 201 198 198 205 202 205 201 204 210 212 211 214 215 215 219 222 220 218 218 221 217 213 215 220 222 225 228 226 228 229
187 189 191 194 195 196 198 200 198 197 195 197 199 201 195 199 203 201 199 200 205 208 209 210 211 215 217 219 218 218 220 219 222 221 220 223 226 228 226 226 229 230
189 191 193 195 197 198 199 199 201 197 194 197 197 203 199 194 198 200 199 199 204 205 207 208 211 212 214 219 217 217 220 221 221 221 222 225 228 229 229 230 233 235
189 192 195 197 199 200 200 200 199 199 194 195 198 200 202 198 194 197 199 201 205 206 206 207 208 210 211 215 218 216 216 221 220 222 224 225 227 228 226 226 229 228
189 192 194 196 197 200 200 198 200 199 198 195 196 199 200 202 196 197 199 203 203 206 207 205 205 208 209 209 215 218 217 218 223 220 223 226 227 230 230 228 227 226
188 189 192 194 194 196 200 199 199 199 198 196 195 198 201 202 202 198 200 203 204 206 207 206 204 207 206 207 209 213 215 216 220 226 225 224 228 230 232 233 230 230
183 185 189 190 192 192 196 198 198 197 195 195 194 199 202 203 205 203 201 204 204 205 205 206 208 206 206 203 204 207 213 217 217 221 225 230 232 232 231 233 236 235
180 181 184 186 189 190 192 194 195 195 194 195 195 200 200 203 205 207 206 204 204 203 205 207 210 210 200 196 198 203 206 215 217 220 225 228 230 234 236 234 234 240
177 180 181 185 187 188 188 191 193 194 194 193 196 198 201 199 204 206 210 208 206 205 205 208 209 211 185 182 190 201 208 209 216 221 221 225 228 230 235 237 239 236
178 178 181 183 184 186 186 189 191 193 193 192 195 196 199 200 202 205 209 211 209 209 210 210 213 202 173 180 185 190 202 212 216 220 223 224 227 229 230 233 236 240
176 179 181 181 183 183 183 185 189 192 193 194 196 196 197 200 202 204 207 210 213 212 216 214 218 183 173 180 185 189 196 211 224 225 225 226 227 226 230 231 233 233
178 179 181 182 181 181 183 186 189 193 196 196 197 196 198 200 203 205 206 207 212 215 217 222 223 174 177 179 185 188 194 201 223 227 231 232 229 228 228 228 229 230
180 182 182 181 181 183 185 189 191 194 197 199 199 199 198 200 203 203 205 206 209 214 217 219 228 173 177 179 184 188 192 197 217 225 230 231 231 230 230 231 230 229
182 182 181 181 183 185 189 192 193 194 196 199 203 202 200 200 203 206 205 207 210 213 218 219 219 174 178 180 184 189 185 195 213 223 229 231 230 230 229 228 229 231
183 182 183 185 186 188 192 194 193 194 197 197 201 203 200 201 204 206 208 209 210 210 215 218 224 176 176 180 184 183 175 202 209 218 226 229 234 231 230 231 229 226
184 183 184 186 188 192 193 194 194 194 195 194 199 203 205 203 204 207 208 211 211 213 211 215 225 180 176 177 181 175 183 200 207 214 222 226 232 233 234 234 231 225
182 183 185 187 190 193 193 193 194 194 195 194 201 204 210 207 206 208 210 211 213 216 206 215 225 194 174 176 179 178 187 203 208 215 219 223 226 229 230 233 235 224
181 183 186 189 191 191 192 193 192 194 196 196 199 203 205 209 206 209 212 212 212 214 212 213 221 210 173 178 179 181 189 197 210 216 223 221 223 226 226 228 232 234